Regional Weather Roundup
Issued by NWS

Home | Current Version | Previous Version | Graphics & Text | Print | Product List | Glossary On
Versions: 1 2 3 4 5 6 7 8 9 10 11 12 13 14 15 16 17 18 19 20 21 22 23 24 25 26 27 28 29 30 31 32 33 34 35 36 37 38 39 40 41 42 43 44 45 46 47 48 49 50
000
ASUS45 KTFX 020310
RWRMT
MONTANA REGIONAL WEATHER ROUNDUP
NATIONAL WEATHER SERVICE GREAT FALLS MT
900 PM MDT SAT AUG 01 2015

NOTE: "FAIR" INDICATES FEW OR NO CLOUDS BELOW 12000 FEET WITH NO
SIGNIFICANT WEATHER AND/OR OBSTRUCTIONS TO VISIBILITY.

MTZ001>007-043-020400-
WEST OF THE DIVIDE

CITY           SKY/WX    TMP DP  RH WIND       PRES   REMARKS
KALISPELL      PTCLDY    82  25  12 W6        29.87R
MISSOULA       PTCLDY    80  34  19 W9        29.93R
BUTTE          CLEAR     78  30  17 W6        30.10R
MULLAN PASS    CLEAR     72  23  16 NW3       30.16S
DEER LODGE       N/A     77  36  22 W10       30.06R
EUREKA           N/A     88  28  11 CALM      29.86R
HAMILTON         N/A     82  43  24 E6        29.96R
LIBBY            N/A     84  30  14 CALM      29.88S
RONAN            N/A     85  38  18 SW5       29.97R
$$

MTZ008-052>055-020400-
SOUTHWEST MONTANA

CITY           SKY/WX    TMP DP  RH WIND       PRES   REMARKS
BOZEMAN        PTCLDY    71  51  49 NE5       29.99R
DILLON         CLEAR     77  39  25 N5        30.04S
W YELLOWSTONE  CLEAR     64  45  48 SW5       30.20R
THREE FORKS      N/A     77  69  76 CALM      29.98R
TWIN BRIDGES     N/A     81  37  20 N2        30.02R
$$

MTZ009-010-012-014-046-048-049-054-020400-
EAST SLOPES AND CENTRAL MONTANA

CITY           SKY/WX    TMP DP  RH WIND       PRES   REMARKS
CUT BANK       CLEAR     74  28  18 N12       29.91R
GREAT FALLS    CLEAR     75  33  21 W7        29.90S
MALMSTROM AFB  CLEAR     86  26  11 N8        29.89S
HELENA         CLEAR     85  34  16 W7        29.93R
CONRAD           N/A     80  40  24 W2        29.94S
$$

MTZ011-013-016-021-045-047-050-051-020400-
NORTH CENTRAL MONTANA

CITY           SKY/WX    TMP DP  RH WIND       PRES   REMARKS
HAVRE          CLEAR     79  51  37 E14       29.84S
LEWISTOWN      CLEAR     74  42  31 S8        29.95S
CHINOOK          N/A     77  55  47 E6        29.86R
FORT BENTON      N/A     90  25   9 N6        29.84S
$$

MTZ017>020-022>027-061-062-020400-
NORTHEAST MONTANA

CITY           SKY/WX    TMP DP  RH WIND       PRES   REMARKS
GLASGOW        CLEAR     78  54  43 NE13      29.82R
JORDAN           N/A     76  34  21 CALM      29.83S
SIDNEY         CLEAR    N/A N/A N/A NW13      29.79S
WOLF POINT     CLEAR     77  58  51 E7        29.83R
MALTA            N/A     77  53  43 N2        29.83R
PLENTYWOOD       N/A     72  54  53 N9        29.86R
POPLAR           N/A     75  57  53 N6        29.83R
$$

MTZ028>42-056>058-020400-
SOUTHCENTRAL AND SOUTHEAST MONTANA

CITY           SKY/WX    TMP DP  RH WIND       PRES   REMARKS
BAKER          CLEAR     78  37  22 N5        29.87R
BILLINGS       PTCLDY    82  32  16 NW8       29.92S
LIVINGSTON     CLEAR     72  37  28 S7        29.99S
MILES CITY     CLEAR     84  31  14 N7        29.83S
EKALAKA          N/A     78  31  18 CALM      29.91R
FORSYTH          N/A     88  30  12 NE3       29.85R
LAUREL           N/A     83  33  16 NW2       29.92S
ROUNDUP          N/A     84  27  12 CALM      29.84S
$$

REGIONAL REPORTS...DAKOTAS

CITY           SKY/WX    TMP DP  RH WIND       PRES   REMARKS
WILLISTON      CLEAR     79  53  40 N17G28    29.80R
MINOT          CLEAR     76  56  49 SE3       29.67F
DICKINSON      CLEAR     72  43  35 NW8       29.80R
CROSBY         FAIR      68  57  68 N10       29.83R
BISMARCK       CLEAR     72  58  61 S6        29.71F
GRAND FORKS    MOCLDY    72  62  71 S7        29.68S
FARGO          CLEAR     73  64  73 SE3       29.71S
BUFFALO SD       N/A     83  33  16 N17       29.80S
RAPID CITY     CLEAR     74  57  55 S7        29.92R
$$

REGIONAL REPORTS...WYOMING/IDAHO/WASHINGTON

CITY           SKY/WX    TMP DP  RH WIND       PRES   REMARKS
GILLETTE       CLEAR     68  35  29 CALM      30.00R
SHERIDAN       CLEAR     66  45  46 S3        29.97R
BUFFALO WY     CLEAR     73  32  22 W12       30.06S
CODY           PTCLDY    81  34  18 CALM      30.06S
YELLOWSTONE LA   N/A     59  37  44 NW3       30.32S
IDAHO FALLS    MOCLDY    81  41  24 SW6       30.04S
SALMON         CLEAR     81  41  24 SE3       29.93R
BOISE          CLEAR     96  38  13 N3        29.86F HX  91
SPOKANE        MOCLDY    88  22   9 W3        29.88S
$$

REGIONAL REPORTS...ALBERTA

CITY           SKY/WX    TMP DP  RH WIND       PRES   REMARKS
EDMONTON       CLEAR     66  54  63 N3        29.98S
CALGARY        PTCLDY    68  57  68 NE12      30.04R
MEDICINE HAT   CLEAR     77  50  38 NE17G24   29.89R
WATERTON GATE    N/A     70  48  46 NE5         N/A
CARDSTON         N/A     72  50  46 NW1         N/A
MILK RIVER       N/A     70  46  43 NE10        N/A
ONEFOUR          N/A     73  48  40 E13         N/A
$$

REGIONAL REPORTS...SASKATCHEWAN

CITY           SKY/WX    TMP DP  RH WIND       PRES   REMARKS
SWIFT CURRENT  PTCLDY    66  55  68 E6        29.93S
REGINA         PTCLDY    63  55  77 NW9       29.87S
SASKATOON      MOCLDY    63  57  82 N7        29.91R
CYPRESS HILLS    N/A     64  48  55 E8          N/A
VAL MARIE        N/A     70  54  56 NE14        N/A
ROCKGLEN         N/A     64  54  68 N8          N/A
$$


USA.gov is the U.S. government's official web portal to all federal, state and local government web resources and services.